"Time","Temp","Dewpoint","Humidity","Pressure","Direction","Speed","Gust","Precip","PrecipRate"
"00:04:57","58.3","45.7","62.9","30.39","65","0.1","2","0.00","0.00"
"00:09:59","58.2","46.8","65.7","30.39","65","0.4","2.3","0.00","0.00"
"00:14:57","58","46.6","65.8","30.39","65","0.1","1.2","0.00","0.00"
"00:19:59","57.8","46.6","66.4","30.39","65","0.3","1.2","0.00","0.00"
"00:24:58","57.7","46.2","65.4","30.39","65","0","1.2","0.00","0.00"
"00:29:56","57.7","46","65","30.39","65","0","0","0.00","0.00"
"00:34:58","57.7","46.7","66.7","30.38","65","0.1","1.2","0.00","0.00"
"00:39:57","57.5","46.7","67.2","30.38","65","0","1.2","0.00","0.00"
"00:44:56","57.3","46.2","66.3","30.39","65","0","1.2","0.00","0.00"
"00:49:58","57.1","46.8","68.5","30.39","65","0","0","0.00","0.00"
"00:54:56","56.9","47.1","69.8","30.39","65","0","0","0.00","0.00"
"00:59:59","56.6","46.5","69","30.39","65","0","0","0.00","0.00"
"01:04:56","56.4","46.4","69.1","30.39","65","0","1","0.00","0.00"
"01:09:57","56.2","46.5","70","30.39","65","0.4","2.3","0.00","0.00"
"01:14:57","55.9","46.4","70.3","30.39","65","0","0","0.00","0.00"
"01:19:56","55.6","46.4","71.2","30.39","65","0","1","0.00","0.00"
"01:24:58","55.2","46.5","72.7","30.39","65","0","1.2","0.00","0.00"
"01:29:56","54.8","45.9","72","30.39","65","0","0","0.00","0.00"
"01:34:58","54.4","45.8","72.9","30.39","65","0","0","0.00","0.00"
"01:39:58","54.1","45.9","73.8","30.39","65","0","0","0.00","0.00"
"01:44:57","53.7","46","74.9","30.39","65","0","0","0.00","0.00"
"01:49:59","53.4","45.9","75.5","30.38","65","0.1","1.2","0.00","0.00"
"01:54:57","53.1","45.9","76.4","30.38","65","0.4","1.2","0.00","0.00"
"01:59:56","53","45.9","76.8","30.38","65","0","0","0.00","0.00"
"02:04:57","52.7","45.7","77","30.38","65","0.4","1.2","0.00","0.00"
"02:09:59","52.5","45.6","77.1","30.38","65","0","1.2","0.00","0.00"
"02:14:58","52.2","45.3","77.3","30.38","65","0","0","0.00","0.00"
"02:19:56","51.9","45.3","78","30.37","65","0","0","0.00","0.00"
"02:24:59","51.6","45.1","78.4","30.37","65","0","0","0.00","0.00"
"02:29:53","51.2","44.9","79","30.37","65","0","0","0.00","0.00"
"02:34:51","50.8","44.8","79.8","30.37","65","0","0","0.00","0.00"
"02:39:58","50.4","44.7","80.5","30.37","65","0","0","0.00","0.00"
"02:44:56","50.1","44.5","81","30.37","65","0","0","0.00","0.00"
"02:49:51","49.9","44.3","81","30.37","65","0","0","0.00","0.00"
"02:54:50","49.8","44.2","81.3","30.37","65","0","0","0.00","0.00"
"02:59:56","49.7","44.4","82","30.37","65","0","0","0.00","0.00"
"03:04:55","49.8","44.5","82","30.37","65","0","0","0.00","0.00"
"03:09:57","49.8","44.5","82.1","30.37","65","0","0","0.00","0.00"
"03:14:56","49.5","44.6","83","30.37","65","0","0","0.00","0.00"
"03:19:59","49.3","44.4","83","30.37","65","0","0","0.00","0.00"
"03:24:58","49","44.2","83.3","30.37","65","0","0","0.00","0.00"
"03:29:56","48.8","44.2","84","30.37","65","0","0","0.00","0.00"
"03:34:58","48.7","44.1","84","30.37","65","0","0","0.00","0.00"
"03:39:56","48.6","44","84","30.37","65","0","0","0.00","0.00"
"03:44:59","48.3","43.7","84","30.37","65","0","0","0.00","0.00"
"03:49:57","48.1","43.5","84","30.37","65","0","0","0.00","0.00"
"03:54:56","47.8","43.2","84","30.37","65","0","0","0.00","0.00"
"03:59:58","47.6","43.3","84.9","30.37","65","0","0","0.00","0.00"
"04:04:55","47.5","43.2","84.9","30.36","65","0","1","0.00","0.00"
"04:09:57","47.4","42.8","84","30.36","65","0.4","2.3","0.00","0.00"
"04:14:56","47.3","42.7","84","30.36","65","0","1.2","0.00","0.00"
"04:19:58","47.2","42.6","84","30.36","65","0","0","0.00","0.00"
"04:24:57","47.1","42.5","84.2","30.36","65","0","0","0.00","0.00"
"04:29:59","46.9","42.6","85","30.36","65","0","0","0.00","0.00"
"04:34:58","46.7","42.4","85","30.36","65","0","0","0.00","0.00"
"04:39:57","46.6","42.3","85","30.36","65","0","0","0.00","0.00"
"04:44:59","46.5","42.2","85","30.36","65","0","0","0.00","0.00"
"04:49:54","46.4","42.1","85","30.36","65","0","0","0.00","0.00"
"04:54:56","46.2","41.9","85","30.36","65","0","0","0.00","0.00"
"04:59:59","46.1","41.9","85.5","30.36","65","0","0","0.00","0.00"
"05:04:56","45.9","41.9","86","30.36","65","0","0","0.00","0.00"
"05:09:58","45.7","42","86.5","30.36","65","0","0","0.00","0.00"
"05:14:57","45.6","42","87","30.36","65","0","0","0.00","0.00"
"05:19:56","45.4","41.8","87.1","30.36","65","0","0","0.00","0.00"
"05:24:58","45.3","42","87.8","30.36","65","0","0","0.00","0.00"
"05:29:56","45.3","41.7","87","30.36","65","0","0","0.00","0.00"
"05:34:59","45.4","41.8","87","30.36","65","0","0","0.00","0.00"
"05:39:58","45.3","41.7","87","30.36","65","0","0","0.00","0.00"
"05:44:56","45.3","41.7","87","30.36","65","0","0","0.00","0.00"
"05:49:58","45.3","41.6","86.8","30.36","65","0.3","1.2","0.00","0.00"
"05:54:57","45.2","41.6","87","30.36","65","0","1.2","0.00","0.00"
"05:59:59","45.1","41.4","86.7","30.36","65","0","0","0.00","0.00"
"06:04:57","45","41.4","87","30.36","65","0","0","0.00","0.00"
"06:09:59","44.8","41.2","87","30.36","65","0","0","0.00","0.00"
"06:14:59","44.6","41","87","30.36","65","0","0","0.00","0.00"
"06:19:57","44.5","41.2","87.8","30.36","65","0","0","0.00","0.00"
"06:24:56","44.5","41.2","88","30.36","65","0","0","0.00","0.00"
"06:29:58","44.4","41.1","88","30.36","65","0","0","0.00","0.00"
"06:34:57","44.3","41","88","30.36","65","0","1","0.00","0.00"
"06:39:56","44.4","41.3","88.5","30.36","65","0","0","0.00","0.00"
"06:44:59","44.5","41.5","89","30.36","65","0.2","1.2","0.00","0.00"
"06:49:57","44.4","41.4","89","30.36","65","0","0","0.00","0.00"
"06:54:56","44.4","41.4","89","30.36","65","0","0","0.00","0.00"
"06:59:58","44.5","41.6","89.6","30.36","65","0","0","0.00","0.00"
"07:04:59","44.8","42","90","30.36","65","0","0","0.00","0.00"
"07:09:57","45.1","42.4","90.4","30.36","65","0","0","0.00","0.00"
"07:14:59","45.6","43.1","91","30.36","65","0","0","0.00","0.00"
"07:19:57","46.1","43.4","90.2","30.36","65","0","0","0.00","0.00"
"07:24:56","46.5","43.7","90","30.36","65","0","0","0.00","0.00"
"07:29:57","47","44.2","90","30.37","65","0","0","0.00","0.00"
"07:34:59","47.5","44.7","90","30.37","65","0","0","0.00","0.00"
"07:39:58","48.1","45.3","90","30.37","65","0","0","0.00","0.00"
"07:44:56","48.5","45.7","90","30.37","65","0","0","0.00","0.00"
"07:49:57","48.9","45.6","88.5","30.37","65","0.3","2.3","0.00","0.00"
"07:54:58","49.4","45.9","87.8","30.37","65","0.4","2.3","0.00","0.00"
"07:59:57","49.8","46","86.6","30.38","64","1","3.5","0.00","0.00"
"08:04:58","50.2","46.2","85.9","30.38","63","0.5","3.5","0.00","0.00"
"08:09:59","50.6","46.3","85.2","30.38","64","0","0","0.00","0.00"
"08:14:58","51.1","46.8","85.3","30.38","64","0","0","0.00","0.00"
"08:19:57","51.6","47","84.4","30.38","64","0","0","0.00","0.00"
"08:24:59","52.1","47.6","84.5","30.38","64","0","1.2","0.00","0.00"
"08:25:13","52.4","47.7","84","30.38","64","0","0","0.00","0.00"
"08:34:59","53.3","47.4","80.3","30.38","64","0","1.2","0.00","0.00"
"08:39:58","53.7","47.2","78.5","30.38","64","0.2","2.3","0.00","0.00"
"08:44:57","54.3","47.5","77.9","30.38","64","0.2","2.3","0.00","0.00"
"08:49:57","54.8","48.1","78","30.38","64","0.4","1.2","0.00","0.00"
"08:54:52","55.3","48.1","76.7","30.38","64","0.3","1.2","0.00","0.00"
"08:59:56","55.7","48.1","75.6","30.38","64","0.1","1.2","0.00","0.00"
"09:04:58","56","47.7","73.7","30.38","64","0.3","1.2","0.00","0.00"
"09:09:59","56.3","47.9","73.3","30.38","64","0.5","2","0.00","0.00"
"09:14:57","56.8","48.8","74.5","30.38","64","1","2.3","0.00","0.00"
"09:19:57","57.3","49","73.8","30.37","64","1","2.3","0.00","0.00"
"09:24:56","57.8","49.3","73.4","30.37","63","0.9","3","0.00","0.00"
"09:29:56","58.3","49.5","72.6","30.37","63","0.9","3.5","0.00","0.00"
"09:34:57","58.8","49.9","72.4","30.37","62","1.2","3.5","0.00","0.00"
"09:39:58","59.3","50.4","72.3","30.37","61","0.9","3.5","0.00","0.00"
"09:44:58","59.9","50.8","71.9","30.37","45","1.1","2.3","0.00","0.00"
"09:49:58","60.5","51.2","71.3","30.36","40","1","2.3","0.00","0.00"
"09:54:57","61.3","51.6","70.5","30.36","57","0.9","4","0.00","0.00"
"09:59:57","61.9","51.7","69.2","30.36","86","2.4","4","0.00","0.00"
"10:04:58","62.3","52.1","69.3","30.36","98","1.9","4","0.00","0.00"
"10:09:56","62.9","53.2","70.7","30.36","103","1.7","4","0.00","0.00"
"10:14:57","63.8","53.7","69.8","30.36","112","2.7","5","0.00","0.00"
"10:19:57","64.3","53.6","68.3","30.35","147","2.6","5","0.00","0.00"
"10:24:57","64.5","53.4","67.4","30.35","93","2.8","8.1","0.00","0.00"
"10:29:57","64.8","53.8","67.5","30.35","103","2.5","4","0.00","0.00"
"10:34:57","65.2","53.9","66.9","30.35","152","2.4","6","0.00","0.00"
"10:39:58","65.3","53.4","65.7","30.35","139","3.5","9.2","0.00","0.00"
"10:44:57","65","53.5","66.2","30.35","136","2.3","7","0.00","0.00"
"10:49:57","65","53.3","65.7","30.34","111","3.3","7","0.00","0.00"
"10:54:57","65","53.4","66","30.34","118","3.1","6","0.00","0.00"
"10:59:57","65","53.5","66.3","30.34","140","2.9","5.8","0.00","0.00"
"11:04:58","65.4","54.2","67.1","30.34","106","2.1","5.8","0.00","0.00"
"11:09:56","66","54.8","67.1","30.34","114","2.8","7","0.00","0.00"
"11:14:56","66.7","55.1","66.4","30.34","139","2.5","5","0.00","0.00"
"11:19:56","67.3","54.8","64.1","30.33","196","2","4.6","0.00","0.00"
"11:24:56","67.6","55.1","64.2","30.33","182","2","4.6","0.00","0.00"
"11:29:59","68","55.5","64.2","30.33","143","3","11.5","0.00","0.00"
"11:34:59","68.6","54.8","61.3","30.32","161","4.4","13","0.00","0.00"
"11:39:59","69","54.2","59.5","30.32","149","3.9","9.2","0.00","0.00"
"11:44:59","69.2","54.9","60.3","30.32","152","3.7","13","0.00","0.00"
"11:49:58","69.7","55.2","60.1","30.32","217","3.9","11.5","0.00","0.00"
"11:54:57","70","55","59.1","30.32","127","3.5","9.2","0.00","0.00"
"11:59:56","70.1","55.3","59.4","30.32","163","3.4","7","0.00","0.00"
"12:04:58","70.4","54.6","57.5","30.31","123","4.4","9.2","0.00","0.00"
"12:09:59","70.1","54.3","57.3","30.31","106","4.6","9.2","0.00","0.00"
"12:14:56","69.9","54.4","58","30.31","91","2.3","7","0.00","0.00"
"12:19:56","70.3","54.4","57.1","30.30","163","4.8","11.5","0.00","0.00"
"12:24:56","70.9","54.8","56.9","30.30","147","2.2","5.8","0.00","0.00"
"12:29:56","71.6","55.7","57.4","30.30","158","3.7","12","0.00","0.00"
"12:34:56","72.1","54.6","54.1","30.29","117","3.6","11.5","0.00","0.00"
"12:39:56","72.5","55.4","54.9","30.29","211","4.9","12","0.00","0.00"
"12:44:56","72.9","56.1","55.6","30.29","192","4.9","11.5","0.00","0.00"
"12:49:56","73.3","55.7","54","30.28","196","5.1","12","0.00","0.00"
"12:54:57","73.3","55.3","53.3","30.28","193","5","10.4","0.00","0.00"
"12:59:56","73.2","55.3","53.5","30.28","154","3.7","12","0.00","0.00"
"13:04:58","73.3","54.5","51.9","30.28","180","6.4","11.5","0.00","0.00"
"13:09:56","73.3","55.5","53.8","30.28","187","4","9.2","0.00","0.00"
"13:14:57","73.7","56.5","55.2","30.28","200","4.9","10.4","0.00","0.00"
"13:19:56","73.7","56","54","30.27","149","5.2","11.5","0.00","0.00"
"13:24:59","73.3","56.3","55.3","30.27","136","4.3","11.5","0.00","0.00"
"13:29:59","73.7","57.1","56.2","30.27","176","5.4","12","0.00","0.00"
"13:34:58","74.2","57.1","55.2","30.26","182","4.3","10.4","0.00","0.00"
"13:39:58","74.7","56.9","54","30.26","135","3.8","9.2","0.00","0.00"
"13:44:58","74.8","56.8","53.6","30.26","143","2.6","9.2","0.00","0.00"
"13:49:57","75.2","57.2","53.6","30.25","195","4.4","12","0.00","0.00"
"13:54:56","75.6","57.6","53.8","30.25","184","3.1","6.9","0.00","0.00"
"13:59:56","75.9","57.7","53.2","30.25","199","4.9","11.5","0.00","0.00"
"14:04:57","75.9","57.6","53.1","30.25","206","6.2","14","0.00","0.00"
"14:09:59","75.9","56.5","51.1","30.25","189","5.6","13.8","0.00","0.00"
"14:14:59","75.8","57.3","52.7","30.25","188","4","9.2","0.00","0.00"
"14:19:59","76","57.5","52.7","30.24","147","4.3","9.2","0.00","0.00"
"14:24:58","76.2","57.9","53.2","30.24","196","4.3","11.5","0.00","0.00"
"14:29:58","76.4","57.1","51.4","30.24","147","3.3","11.5","0.00","0.00"
"14:34:58","77","59","53.7","30.22","191","4.4","11.5","0.00","0.00"
"14:39:58","77.6","58.5","51.9","30.22","187","3.4","12","0.00","0.00"
"14:44:57","77.4","58.2","51.6","30.22","173","4.3","11.5","0.00","0.00"
"14:49:57","77.4","58.9","53","30.22","159","3.3","11","0.00","0.00"
"14:54:56","77.6","59.1","53","30.22","198","4.7","11.5","0.00","0.00"
"14:59:59","77.5","58.6","52.2","30.22","192","4.1","10.4","0.00","0.00"
"15:04:52","77.3","58.4","52.2","30.21","173","3.2","9.2","0.00","0.00"
"15:09:58","77.2","58","51.6","30.21","135","5.4","13","0.00","0.00"
"15:14:58","77.1","58.5","52.6","30.21","204","5.6","11","0.00","0.00"
"15:19:57","77.6","59.3","53.3","30.20","174","4.7","11.5","0.00","0.00"
"15:24:57","78.1","58.6","51.3","30.20","194","3.2","9.2","0.00","0.00"
"15:29:56","78.5","58.5","50.5","30.20","132","4.4","9.2","0.00","0.00"
"15:34:59","78.4","58.8","51","30.19","134","3.9","9.2","0.00","0.00"
"15:39:56","78.6","59.4","51.7","30.19","152","3.8","9.2","0.00","0.00"
"15:44:57","78.9","60","52.5","30.19","146","3.8","9.2","0.00","0.00"
"15:49:57","79.2","59.7","51.4","30.18","194","3.4","9.2","0.00","0.00"
"15:54:58","79.6","60.6","52.4","30.18","213","2.9","9.2","0.00","0.00"
"15:59:58","79.8","60.2","51.3","30.18","191","5","11.5","0.00","0.00"
"16:04:57","79.9","61.1","52.9","30.18","199","3.9","10.4","0.00","0.00"
"16:09:56","80","60.4","51.3","30.18","205","2.7","10","0.00","0.00"
"16:14:56","80.2","60.4","51","30.18","177","4.5","10.4","0.00","0.00"
"16:19:57","80.3","60.6","51.3","30.17","131","4","9.2","0.00","0.00"
"16:24:57","80","59.9","50.3","30.17","143","2.7","7","0.00","0.00"
"16:29:58","80.1","60.6","51.5","30.17","145","3.1","11.5","0.00","0.00"
"16:34:43","80.1","60","50.5","30.16","171","3.6","9","0.00","0.00"
"16:39:57","80.1","60.6","51.3","30.16","198","4.9","12","0.00","0.00"
"16:44:57","80.2","61.1","52.3","30.16","195","3.7","11.5","0.00","0.00"
"16:49:58","80.4","61.7","52.9","30.16","166","3.8","8","0.00","0.00"
"16:54:58","80.5","61.3","52.1","30.16","215","4","9.2","0.00","0.00"
"16:59:59","80.6","61.4","52.1","30.16","186","4.9","10.4","0.00","0.00"
"17:04:58","80.6","60.9","51.2","30.15","161","3.4","9.2","0.00","0.00"
"17:09:57","80.7","61.3","51.9","30.15","126","3","7","0.00","0.00"
"17:14:59","80.6","61.1","51.6","30.15","200","3.9","9.2","0.00","0.00"
"17:19:59","80.8","61.3","51.6","30.15","208","4.5","10.4","0.00","0.00"
"17:24:56","80.6","60.8","51.1","30.15","202","4.4","9.2","0.00","0.00"
"17:29:57","80.5","61.4","52.3","30.15","172","2.7","9","0.00","0.00"
"17:34:58","80.6","60.8","51.1","30.14","144","3","7","0.00","0.00"
"17:39:56","80.6","60.1","49.8","30.14","135","2.6","10","0.00","0.00"
"17:44:57","80.3","58","46.7","30.14","124","3.8","10.4","0.00","0.00"
"17:49:57","79.9","58.3","47.7","30.14","114","4.7","9.2","0.00","0.00"
"17:54:58","79.5","57.5","47.1","30.14","125","3.5","6","0.00","0.00"
"17:59:58","79.2","57.5","47.5","30.14","114","4.6","11.5","0.00","0.00"
"18:04:58","78.9","57.2","47.3","30.14","117","3.6","9.2","0.00","0.00"
"18:09:59","78.6","57","47.4","30.14","119","3.9","9.2","0.00","0.00"
"18:14:56","78.4","56.7","47.4","30.14","110","4.5","8.1","0.00","0.00"
"18:19:59","78.2","57.1","48.3","30.14","115","3.5","10.4","0.00","0.00"
"18:24:59","78.2","57.3","48.7","30.14","117","3.4","11.5","0.00","0.00"
"18:29:59","78","56.7","48","30.14","112","4.5","9.2","0.00","0.00"
"18:34:58","77.9","56.8","48.4","30.14","119","3.4","6.9","0.00","0.00"
"18:39:59","77.9","57.1","48.8","30.14","122","2.9","5","0.00","0.00"
"18:44:59","77.8","56.9","48.6","30.14","123","3.7","10","0.00","0.00"
"18:49:58","77.6","56.9","49.1","30.14","113","3.2","10.4","0.00","0.00"
"18:54:58","77.3","56.6","49","30.14","108","3.2","5.8","0.00","0.00"
"18:59:58","77.1","56.6","49.3","30.14","112","3.3","6","0.00","0.00"
"19:04:59","76.8","56.8","50","30.13","113","2.6","5.8","0.00","0.00"
"19:09:57","76.6","56.6","49.9","30.13","102","2.6","5","0.00","0.00"
"19:14:58","76.5","56.6","50.3","30.14","110","2.3","5","0.00","0.00"
"19:19:58","76.3","56.6","50.7","30.14","116","3.5","6","0.00","0.00"
"19:24:57","76","56.7","51.2","30.14","118","2.3","6","0.00","0.00"
"19:29:57","75.9","56.9","51.8","30.14","121","2.5","7","0.00","0.00"
"19:34:57","75.7","57","52.4","30.14","121","2.7","7","0.00","0.00"
"19:39:58","75.4","56.9","52.7","30.14","90","2.1","5.8","0.00","0.00"
"19:44:58","75.2","56.9","53","30.14","151","1.5","4","0.00","0.00"
"19:49:58","75","56.7","53.1","30.14","166","1.1","3.5","0.00","0.00"
"19:54:58","74.8","57","54","30.14","152","1.4","4","0.00","0.00"
"19:59:58","74.6","57","54.3","30.14","132","1","3.5","0.00","0.00"
"20:04:52","74.4","56.7","54","30.14","132","0.8","4","0.00","0.00"
"20:09:58","74.1","56.6","54.5","30.14","124","1.3","3.5","0.00","0.00"
"20:14:59","73.8","56.6","54.9","30.15","118","1.9","5","0.00","0.00"
"20:19:59","73.6","56.6","55.4","30.15","122","0.8","4","0.00","0.00"
"20:24:56","73.3","56.3","55.2","30.15","119","1.2","4","0.00","0.00"
"20:29:59","73.1","56.5","56","30.15","90","0.3","3","0.00","0.00"
"20:34:51","72.8","55.4","54.4","30.15","74","1.5","4","0.00","0.00"
"20:39:52","72.1","54.6","54.2","30.15","94","1.7","5","0.00","0.00"
"20:44:57","71.5","53.6","53.2","30.16","72","2.3","4.6","0.00","0.00"
"20:49:56","70.9","53","53.1","30.16","83","2.2","4","0.00","0.00"
"20:54:56","70.5","52.6","53.2","30.16","85","2","4","0.00","0.00"
"20:59:56","70.1","52.7","54","30.16","86","1.1","2.3","0.00","0.00"
"21:04:54","69.8","52.5","54.2","30.16","85","1.3","2.3","0.00","0.00"
"21:09:57","69.5","52.6","55","30.16","86","1.8","3.5","0.00","0.00"
"21:14:59","69.2","52.5","55.5","30.16","86","1.5","3.5","0.00","0.00"
"21:19:59","68.9","52.5","56","30.16","86","1.5","3.5","0.00","0.00"
"21:24:59","68.6","52.6","56.6","30.16","86","1.2","2.3","0.00","0.00"
"21:29:59","68.4","52.6","57","30.16","86","1.3","2.3","0.00","0.00"
"21:34:59","68.2","52.6","57.5","30.16","89","1.2","4","0.00","0.00"
"21:39:57","68","52.8","58.3","30.16","101","1.2","5","0.00","0.00"
"21:44:57","67.9","52.8","58.6","30.16","130","2.1","4.6","0.00","0.00"
"21:49:57","67.8","52.9","59","30.16","128","2.1","4","0.00","0.00"
"21:54:57","67.7","52.8","58.8","30.16","121","2.7","6","0.00","0.00"
"21:59:53","67.8","52.9","59","30.17","104","2.5","5","0.00","0.00"
"22:04:59","67.8","52.9","59","30.17","92","1.9","5","0.00","0.00"
"22:09:57","67.6","52.8","59","30.17","101","1.6","3.5","0.00","0.00"
"22:14:58","67.3","52.6","59.2","30.17","103","1.4","3.5","0.00","0.00"
"22:24:58","66.9","52.7","60.3","30.17","110","1.9","5","0.00","0.00"
"22:29:58","66.7","52.8","61","30.17","113","1.1","3.5","0.00","0.00"
"22:34:58","66.4","52.5","60.9","30.16","118","2.3","6","0.00","0.00"
"22:39:59","66.2","52.3","60.8","30.16","118","2.3","6","0.00","0.00"
"22:44:55","66.1","52.1","60.6","30.17","121","2.2","5.8","0.00","0.00"
"22:49:59","65.9","52.1","61","30.17","113","1.6","4","0.00","0.00"
"22:54:59","65.7","51.9","61","30.17","113","0.9","4","0.00","0.00"
"22:59:56","65.5","51.7","61","30.17","113","1.1","2.3","0.00","0.00"
"23:04:58","65.2","51.8","61.9","30.16","113","0.8","2.3","0.00","0.00"
"23:09:59","65","51.7","62","30.16","113","1","3.5","0.00","0.00"
"23:14:52","64.7","51.4","62","30.16","113","0.6","3.5","0.00","0.00"
"23:19:57","64.5","51.5","62.7","30.16","113","0.1","1.2","0.00","0.00"
"23:24:57","64.2","51.3","63","30.16","113","1.1","3.5","0.00","0.00"
"23:29:57","64","51.2","63.1","30.16","113","0.7","3.5","0.00","0.00"
"23:34:57","63.8","51.3","63.8","30.16","113","0.4","2.3","0.00","0.00"
"23:39:58","63.5","51.1","64","30.16","113","0.6","2.3","0.00","0.00"
"23:44:58","63.2","50.8","64","30.16","113","0.7","2.3","0.00","0.00"
"23:49:58","62.9","50.5","64","30.16","113","0.4","2.3","0.00","0.00"
"23:54:58","62.6","50.2","64","30.16","113","0.8","2.3","0.00","0.00"
"23:59:58","62.4","50.4","64.8","30.16","113","0.3","1.2","0.00","0.00"
